Weather History for KAPY - June, 2013

Change the Weather History Date:

Saturday, June 1, 2013

  Actual Average (KLRD) Record (KLRD)
Temperature  
Mean Temperature 88 °F 86 °F  
Max Temperature 99 °F 97 °F 109 °F (1998)
Min Temperature 77 °F 74 °F 59 °F (1907)
Degree Days  
Heating Degree Days 0 0  
Month to date heating degree days 0  
Since 1 June heating degree days 0  
Since 1 July heating degree days 926  
Cooling Degree Days 23 21  
Month to date cooling degree days 21  
Year to date cooling degree days 1164  
Since 1 June cooling degree days 21  
Growing Degree Days 38 (Base 50)    
Moisture  
Dew Point 68 °F    
Average Humidity 56    
Maximum Humidity 78    
Minimum Humidity 30    
Precipitation  
Precipitation 0.00 in 0.07 in 4.63 in (1979)
Month to date precipitation 0.07  
Year to date precipitation 6.94  
Sea Level Pressure  
Sea Level Pressure 29.76 in    
Wind  
Wind Speed 13 mph (SE)    
Max Wind Speed 17 mph    
Max Gust Speed 28 mph    
Visibility 10 miles    
Events      
T = Trace of Precipitation, MM = Missing Value Source: NWS Daily Summary

Daily Weather History Graph

Daily Weather History Graph

Search for Another Location

Airport or City:

Trip Planner

Search our weather history database for the weather conditions in past years. The results will help you decide how hot, cold, wet, or windy it might be!

Date:

Astronomy

Jun. 01, 2013 Rise Set
Actual Time 6:43 AM CDT 8:26 PM CDT
Civil Twilight 6:16 AM CDT 8:53 PM CDT
Nautical Twilight 5:45 AM CDT 9:24 PM CDT
Astronomical Twilight 5:12 AM CDT 9:57 PM CDT
Moon 2:05 AM CDT (6/1) 2:29 PM CDT (6/1)
Length of Visible Light 14h 36m
Length of Day
13h 43m
Last Quarter, 40% of the Moon is Illuminated
Jun 1
Last Quarter
Jun 8
New
Jun 16
First Quarter
Jun 23
Full
Jun 29
Last Quarter

Hourly Weather History & Observations

Time (CDT) Temp. Heat Index Dew Point Humidity Pressure Visibility Wind Dir Wind Speed Gust Speed Precip Events Conditions
12:15 AM 81.5 °F 84.6 °F 68.5 °F 65% 29.78 in 10.0 mi SE 13.8 mph 21.9 mph N/A   Clear
12:35 AM 81.0 °F 84.1 °F 69.3 °F 67% 29.78 in 10.0 mi SE 15.0 mph 26.5 mph N/A   Clear
12:55 AM 80.1 °F 83.2 °F 69.8 °F 71% 29.77 in 10.0 mi SE 15.0 mph 20.7 mph N/A   Clear
1:15 AM 79.7 °F - 70.0 °F 72% 29.77 in 10.0 mi SE 15.0 mph 24.2 mph N/A   Clear
1:35 AM 79.3 °F - 70.3 °F 74% 29.77 in 10.0 mi SSE 17.3 mph 27.6 mph N/A   Mostly Cloudy
1:55 AM 79.3 °F - 70.7 °F 75% 29.77 in 10.0 mi SE 12.7 mph 24.2 mph N/A   Overcast
2:15 AM 79.2 °F - 70.7 °F 75% 29.77 in 10.0 mi SE 15.0 mph 23.0 mph N/A   Overcast
2:35 AM 79.2 °F - 70.3 °F 74% 29.76 in 10.0 mi SE 12.7 mph 21.9 mph N/A   Overcast
2:55 AM 78.8 °F - 70.3 °F 75% 29.76 in 10.0 mi SE 12.7 mph 18.4 mph N/A   Mostly Cloudy
3:15 AM 78.3 °F - 70.3 °F 77% 29.75 in 10.0 mi SE 9.2 mph 16.1 mph N/A   Mostly Cloudy
3:35 AM 77.9 °F - 70.3 °F 77% 29.75 in 10.0 mi SE 11.5 mph 16.1 mph N/A   Scattered Clouds
3:55 AM 77.9 °F - 70.3 °F 77% 29.74 in 10.0 mi SE 10.4 mph 16.1 mph N/A   Clear
4:15 AM 77.9 °F - 70.3 °F 77% 29.74 in 10.0 mi SE 12.7 mph 20.7 mph N/A   Scattered Clouds
4:35 AM 77.9 °F - 70.7 °F 78% 29.74 in 10.0 mi SE 9.2 mph - N/A   Scattered Clouds
4:55 AM 77.9 °F - 70.7 °F 78% 29.74 in 10.0 mi SE 11.5 mph 16.1 mph N/A   Clear
5:15 AM 77.9 °F - 70.7 °F 78% 29.74 in 10.0 mi SE 12.7 mph 18.4 mph N/A   Clear
5:35 AM 77.9 °F - 70.7 °F 78% 29.74 in 10.0 mi SE 13.8 mph 21.9 mph N/A   Scattered Clouds
5:55 AM 78.1 °F - 70.7 °F 78% 29.75 in 10.0 mi SE 11.5 mph 17.3 mph N/A   Mostly Cloudy
6:15 AM 78.1 °F - 70.3 °F 77% 29.75 in 10.0 mi SE 12.7 mph 19.6 mph N/A   Mostly Cloudy
6:35 AM 77.9 °F - 70.2 °F 77% 29.75 in 10.0 mi SE 13.8 mph 20.7 mph N/A   Mostly Cloudy
6:55 AM 77.7 °F - 70.0 °F 77% 29.77 in 10.0 mi SE 12.7 mph 18.4 mph N/A   Scattered Clouds
7:15 AM 77.9 °F - 69.8 °F 76% 29.77 in 10.0 mi SE 12.7 mph 16.1 mph N/A   Scattered Clouds
7:35 AM 78.3 °F - 69.8 °F 75% 29.78 in 10.0 mi SE 10.4 mph - N/A   Scattered Clouds
7:55 AM 79.2 °F - 70.0 °F 73% 29.79 in 10.0 mi SE 12.7 mph 17.3 mph N/A   Clear
8:15 AM 79.7 °F - 69.8 °F 72% 29.79 in 10.0 mi SSE 13.8 mph 19.6 mph N/A   Scattered Clouds
8:35 AM 80.2 °F 83.5 °F 70.0 °F 71% 29.80 in 10.0 mi SSE 11.5 mph 17.3 mph N/A   Mostly Cloudy
8:55 AM 81.0 °F 84.6 °F 70.3 °F 70% 29.80 in 10.0 mi SE 13.8 mph 18.4 mph N/A   Mostly Cloudy
9:15 AM 81.9 °F 85.8 °F 70.2 °F 68% 29.79 in 10.0 mi SSE 13.8 mph 23.0 mph N/A   Mostly Cloudy
9:35 AM 82.8 °F 86.7 °F 69.8 °F 65% 29.79 in 10.0 mi SSE 16.1 mph 21.9 mph N/A   Scattered Clouds
9:55 AM 84.2 °F 88.7 °F 70.2 °F 63% 29.80 in 10.0 mi SSE 12.7 mph 19.6 mph N/A   Scattered Clouds
10:15 AM 85.1 °F 89.8 °F 70.3 °F 61% 29.80 in 10.0 mi SSE 6.9 mph - N/A   Scattered Clouds
10:35 AM 86.2 °F 90.7 °F 69.8 °F 58% 29.80 in 10.0 mi SSE 13.8 mph 18.4 mph N/A   Scattered Clouds
10:55 AM 87.4 °F 91.9 °F 69.6 °F 55% 29.80 in 10.0 mi SSE 13.8 mph 17.3 mph N/A   Scattered Clouds
11:15 AM 88.2 °F 92.5 °F 68.9 °F 53% 29.80 in 10.0 mi SSE 10.4 mph 18.4 mph N/A   Clear
11:35 AM 89.6 °F 93.9 °F 68.5 °F 50% 29.79 in 10.0 mi SSE 12.7 mph 19.6 mph N/A   Clear
11:55 AM 90.5 °F 95.5 °F 69.3 °F 50% 29.79 in 10.0 mi SSE 11.5 mph 17.3 mph N/A   Scattered Clouds
12:15 PM 91.4 °F 95.4 °F 68.0 °F 46% 29.79 in 10.0 mi SSE 11.5 mph - N/A   Clear
12:35 PM 91.6 °F 95.2 °F 67.6 °F 45% 29.79 in 10.0 mi SE 11.5 mph 19.6 mph N/A   Clear
12:55 PM 92.1 °F 95.7 °F 67.3 °F 44% 29.78 in 10.0 mi SSE 8.1 mph 18.4 mph N/A   Clear
1:15 PM 93.0 °F 96.9 °F 67.6 °F 43% 29.77 in 10.0 mi SSE 8.1 mph - N/A   Clear
1:35 PM 93.7 °F 97.2 °F 66.6 °F 41% 29.77 in 10.0 mi SSE 10.4 mph 18.4 mph N/A   Clear
1:55 PM 95.0 °F 97.9 °F 65.5 °F 38% 29.77 in 10.0 mi ESE 8.1 mph - N/A   Clear
2:15 PM 95.0 °F 97.9 °F 66.0 °F 38% 29.76 in 10.0 mi SE 10.4 mph 18.4 mph N/A   Clear
2:35 PM 96.1 °F 98.8 °F 64.8 °F 36% 29.75 in 10.0 mi SSE 9.2 mph 18.4 mph N/A   Clear
2:55 PM 96.1 °F 98.8 °F 64.9 °F 36% 29.74 in 10.0 mi SSE 8.1 mph 17.3 mph N/A   Clear
3:15 PM 97.0 °F 100.4 °F 65.7 °F 36% 29.73 in 10.0 mi SE 10.4 mph - N/A   Clear
3:35 PM 97.5 °F 101.4 °F 66.2 °F 36% 29.73 in 10.0 mi SE 10.4 mph 18.4 mph N/A   Clear
3:55 PM 97.7 °F 100.0 °F 64.4 °F 33% 29.72 in 10.0 mi SE 6.9 mph 16.1 mph N/A   Clear
4:15 PM 98.4 °F 100.2 °F 63.3 °F 31% 29.71 in 10.0 mi SSE 10.4 mph - N/A   Clear
4:35 PM 98.6 °F 100.5 °F 63.3 °F 31% 29.71 in 10.0 mi ESE 11.5 mph 16.1 mph N/A   Clear
4:55 PM 98.6 °F 100.0 °F 62.2 °F 30% 29.70 in 10.0 mi ESE 12.7 mph 20.7 mph N/A   Clear
5:15 PM 99.0 °F 100.5 °F 62.2 °F 30% 29.70 in 10.0 mi SSE 8.1 mph 17.3 mph N/A   Clear
5:35 PM 98.8 °F 100.3 °F 61.9 °F 30% 29.69 in 10.0 mi SE 8.1 mph 18.4 mph N/A   Clear
5:55 PM 98.4 °F 100.2 °F 63.0 °F 31% 29.69 in 10.0 mi ESE 9.2 mph 19.6 mph N/A   Clear
6:15 PM 98.6 °F 100.0 °F 61.9 °F 30% 29.69 in 10.0 mi SE 11.5 mph 18.4 mph N/A   Clear
6:35 PM 97.2 °F 99.6 °F 64.2 °F 34% 29.69 in 10.0 mi ESE 16.1 mph 20.7 mph N/A   Clear
6:55 PM 96.8 °F 100.1 °F 65.5 °F 36% 29.70 in 10.0 mi ESE 10.4 mph 16.1 mph N/A   Clear
7:15 PM 95.7 °F 98.7 °F 65.5 °F 37% 29.70 in 10.0 mi East 13.8 mph 20.7 mph N/A   Clear
7:35 PM 94.5 °F 97.5 °F 66.0 °F 39% 29.72 in 10.0 mi ESE 15.0 mph 24.2 mph N/A   Clear
7:55 PM 93.4 °F 95.6 °F 64.9 °F 39% 29.73 in 10.0 mi ESE 12.7 mph 26.5 mph N/A   Clear
8:15 PM 92.3 °F 93.8 °F 64.4 °F 39% 29.73 in 10.0 mi ESE 13.8 mph 17.3 mph N/A   Clear
8:35 PM 91.2 °F 93.7 °F 65.7 °F 43% 29.74 in 10.0 mi ESE 12.7 mph 18.4 mph N/A   Clear
8:55 PM 90.3 °F 92.2 °F 65.3 °F 43% 29.75 in 10.0 mi ESE 10.4 mph 20.7 mph N/A   Clear
9:15 PM 89.1 °F 91.0 °F 65.3 °F 45% 29.77 in 10.0 mi ESE 10.4 mph 17.3 mph N/A   Clear
9:35 PM 88.7 °F 90.8 °F 65.3 °F 46% 29.78 in 10.0 mi ESE 12.7 mph 16.1 mph N/A   Clear
9:55 PM 88.0 °F 90.0 °F 65.5 °F 47% 29.79 in 10.0 mi ESE 15.0 mph 21.9 mph N/A   Clear
10:15 PM 87.4 °F 89.8 °F 66.4 °F 49% 29.80 in 10.0 mi ESE 13.8 mph 20.7 mph N/A   Clear
10:35 PM 86.4 °F 89.0 °F 66.9 °F 52% 29.82 in 10.0 mi ESE 12.7 mph 19.6 mph N/A   Clear
10:55 PM 85.3 °F 89.4 °F 69.4 °F 59% 29.82 in 10.0 mi ESE 16.1 mph 20.7 mph N/A   Clear
11:15 PM 84.0 °F 88.7 °F 70.7 °F 64% 29.84 in 10.0 mi ESE 16.1 mph 23.0 mph N/A   Clear
11:35 PM 82.8 °F 87.2 °F 70.9 °F 67% 29.85 in 10.0 mi ESE 13.8 mph 19.6 mph N/A   Clear
11:55 PM 82.0 °F 86.3 °F 70.9 °F 69% 29.85 in 10.0 mi ESE 16.1 mph 21.9 mph N/A   Clear